Location: *
(13.0000°N, 151.6000°E)
Time: 15:55:00
(UTC+00:00)

SJ-12 - Pass Details

Date: 01 April 2020
Orbit: 568 x 585 km, 97.7° (Epoch: 03 June)

Event Time Altitude Azimuth Distance (km) Brightness Sun altitude
Rises 18:39:53 0° 14° (NNE) 2,776 7.7 -17.6°
Reaches altitude 10° 18:42:03 10° 16° (NNE) 1,875 6.9 -17.1°
Maximum altitude 18:46:06 73° 101° (ESE) 599 4.1 -16.1°
Drops below altitude 10° 18:50:07 10° 186° (S) 1,865 6.4 -15.1°
Sets 18:52:16 0° 188° (S) 2,760 7.2 -14.6°
